Time,TemperatureF,DewpointF,PressureIn,WindDirection,WindDirectionDegrees,WindSpeedMPH,WindSpeedGustMPH,Humidity,HourlyPrecipIn,Conditions,Clouds,dailyrainin,SoftwareType,DateUTC
2013-03-17 00:00:00,20.9,12.6,29.93,ENE,68,1.3,2.2,70,0.00,,,0.00,WUHU216HW,2013-03-17 04:00:00,
2013-03-17 00:05:00,20.5,12.2,29.94,ENE,68,2.0,2.0,70,0.00,,,0.00,WUHU216HW,2013-03-17 04:05:00,
2013-03-17 00:10:00,20.3,12.1,29.94,ENE,68,2.2,2.2,70,0.00,,,0.00,WUHU216HW,2013-03-17 04:10:00,
2013-03-17 00:15:00,20.2,12.2,29.93,East,90,1.8,2.2,71,0.00,,,0.00,WUHU216HW,2013-03-17 04:15:00,
2013-03-17 00:20:00,20.0,11.7,29.93,ENE,68,1.3,2.0,70,0.00,,,0.00,WUHU216HW,2013-03-17 04:20:00,
2013-03-17 00:25:00,19.8,11.8,29.93,ENE,68,1.1,1.6,71,0.00,,,0.00,WUHU216HW,2013-03-17 04:25:00,
2013-03-17 00:30:00,19.8,11.8,29.93,ENE,68,0.4,1.6,71,0.00,,,0.00,WUHU216HW,2013-03-17 04:30:00,
2013-03-17 00:35:00,19.6,11.3,29.93,NE,45,0.0,1.1,70,0.00,,,0.00,WUHU216HW,2013-03-17 04:35:00,
2013-03-17 00:40:00,19.6,11.3,29.94,SE,135,0.2,0.7,70,0.00,,,0.00,WUHU216HW,2013-03-17 04:40:00,
2013-03-17 00:45:00,19.6,11.3,29.93,ENE,68,0.7,0.7,70,0.00,,,0.00,WUHU216HW,2013-03-17 04:45:00,
2013-03-17 00:50:00,19.6,11.3,29.93,North,0,0.7,1.8,70,0.00,,,0.00,WUHU216HW,2013-03-17 04:50:00,
2013-03-17 00:55:00,19.6,11.3,29.93,North,0,0.2,1.8,70,0.00,,,0.00,WUHU216HW,2013-03-17 04:55:00,
2013-03-17 01:00:00,19.6,11.0,29.93,NE,45,0.7,1.6,69,0.00,,,0.00,WUHU216HW,2013-03-17 05:00:00,
2013-03-17 01:05:00,19.8,11.2,29.93,North,0,0.9,2.0,69,0.00,,,0.00,WUHU216HW,2013-03-17 05:05:00,
2013-03-17 01:10:00,19.8,11.2,29.93,NE,45,1.1,2.5,69,0.00,,,0.00,WUHU216HW,2013-03-17 05:10:00,
2013-03-17 01:15:00,19.6,11.0,29.93,NNE,23,0.9,2.5,69,0.00,,,0.00,WUHU216HW,2013-03-17 05:15:00,
2013-03-17 01:20:00,19.6,11.0,29.93,North,0,0.0,1.6,69,0.00,,,0.00,WUHU216HW,2013-03-17 05:20:00,
2013-03-17 01:25:00,19.4,10.8,29.93,NE,45,0.4,1.1,69,0.00,,,0.00,WUHU216HW,2013-03-17 05:25:00,
2013-03-17 01:30:00,19.4,10.8,29.93,NE,45,1.1,1.3,69,0.00,,,0.00,WUHU216HW,2013-03-17 05:30:00,
2013-03-17 01:35:00,19.3,10.6,29.93,East,90,0.9,1.8,69,0.00,,,0.00,WUHU216HW,2013-03-17 05:35:00,
2013-03-17 01:40:00,19.3,10.4,29.94,North,0,1.6,1.8,68,0.00,,,0.00,WUHU216HW,2013-03-17 05:40:00,
2013-03-17 01:45:00,19.3,10.4,29.94,NNE,23,1.1,1.8,68,0.00,,,0.00,WUHU216HW,2013-03-17 05:45:00,
2013-03-17 01:50:00,19.3,10.4,29.94,NNE,23,1.8,1.8,68,0.00,,,0.00,WUHU216HW,2013-03-17 05:50:00,
2013-03-17 01:55:00,19.1,10.2,29.94,North,0,1.6,2.5,68,0.00,,,0.00,WUHU216HW,2013-03-17 05:55:00,
2013-03-17 02:00:00,19.1,10.2,29.94,North,0,1.8,2.5,68,0.00,,,0.00,WUHU216HW,2013-03-17 06:00:00,
2013-03-17 02:05:00,19.1,9.8,29.94,NNE,23,1.8,1.8,67,0.00,,,0.00,WUHU216HW,2013-03-17 06:05:00,
2013-03-17 02:10:00,19.1,9.8,29.95,North,0,0.2,2.0,67,0.00,,,0.00,WUHU216HW,2013-03-17 06:10:00,
2013-03-17 02:15:00,19.1,9.8,29.95,NNW,338,0.4,2.0,67,0.00,,,0.00,WUHU216HW,2013-03-17 06:15:00,
2013-03-17 02:20:00,19.1,9.8,29.95,North,0,1.1,2.5,67,0.00,,,0.00,WUHU216HW,2013-03-17 06:20:00,
2013-03-17 02:25:00,18.9,9.6,29.95,NE,45,1.1,2.5,67,0.00,,,0.00,WUHU216HW,2013-03-17 06:25:00,
2013-03-17 02:30:00,18.7,9.5,29.95,East,90,0.4,2.0,67,0.00,,,0.00,WUHU216HW,2013-03-17 06:30:00,
2013-03-17 02:35:00,18.7,9.5,29.95,ENE,68,1.3,1.6,67,0.00,,,0.00,WUHU216HW,2013-03-17 06:35:00,
2013-03-17 02:40:00,18.5,9.4,29.95,ENE,68,0.0,1.6,67,0.00,,,0.00,WUHU216HW,2013-03-17 06:40:00,
2013-03-17 02:45:00,18.4,9.2,29.95,ENE,68,0.9,1.1,67,0.00,,,0.00,WUHU216HW,2013-03-17 06:45:00,
2013-03-17 02:50:00,18.2,9.0,29.95,East,90,1.8,1.8,67,0.00,,,0.00,WUHU216HW,2013-03-17 06:50:00,
2013-03-17 02:55:00,18.0,8.8,29.95,ENE,68,1.3,2.0,67,0.00,,,0.00,WUHU216HW,2013-03-17 06:55:00,
2013-03-17 03:00:00,17.8,9.0,29.95,ENE,68,1.1,2.0,68,0.00,,,0.00,WUHU216HW,2013-03-17 07:00:00,
2013-03-17 03:05:00,17.6,8.8,29.96,ESE,113,0.0,1.6,68,0.00,,,0.00,WUHU216HW,2013-03-17 07:05:00,
2013-03-17 03:10:00,17.3,8.5,29.96,South,180,0.0,1.1,68,0.00,,,0.00,WUHU216HW,2013-03-17 07:10:00,
2013-03-17 03:15:00,17.1,8.3,29.96,South,180,0.0,0.4,68,0.00,,,0.00,WUHU216HW,2013-03-17 07:15:00,
2013-03-17 03:20:00,17.1,8.6,29.96,SSE,158,0.9,0.9,69,0.00,,,0.00,WUHU216HW,2013-03-17 07:20:00,
2013-03-17 03:25:00,17.1,8.6,29.96,ESE,113,2.0,2.0,69,0.00,,,0.00,WUHU216HW,2013-03-17 07:25:00,
2013-03-17 03:30:00,16.9,8.5,29.97,ESE,113,0.0,2.0,69,0.00,,,0.00,WUHU216HW,2013-03-17 07:30:00,
2013-03-17 03:35:00,16.7,8.3,29.97,SE,135,0.9,1.6,69,0.00,,,0.00,WUHU216HW,2013-03-17 07:35:00,
2013-03-17 03:40:00,16.6,8.1,29.97,SE,135,1.1,1.1,69,0.00,,,0.00,WUHU216HW,2013-03-17 07:40:00,
2013-03-17 03:45:00,16.2,7.7,29.96,SE,135,1.1,1.8,69,0.00,,,0.00,WUHU216HW,2013-03-17 07:45:00,
2013-03-17 03:50:00,16.2,7.7,29.96,SW,225,0.0,1.8,69,0.00,,,0.00,WUHU216HW,2013-03-17 07:50:00,
2013-03-17 03:55:00,16.2,8.1,29.96,ESE,113,0.0,0.4,70,0.00,,,0.00,WUHU216HW,2013-03-17 07:55:00,
2013-03-17 04:00:00,16.2,8.1,29.97,SSE,158,0.0,0.0,70,0.00,,,0.00,WUHU216HW,2013-03-17 08:00:00,
2013-03-17 04:05:00,16.2,8.1,29.97,SE,135,0.0,0.0,70,0.00,,,0.00,WUHU216HW,2013-03-17 08:05:00,
2013-03-17 04:10:00,16.2,8.4,29.98,SE,135,1.6,1.6,71,0.00,,,0.00,WUHU216HW,2013-03-17 08:10:00,
2013-03-17 04:15:00,16.0,8.2,29.98,ESE,113,1.3,1.6,71,0.00,,,0.00,WUHU216HW,2013-03-17 08:15:00,
2013-03-17 04:20:00,15.8,8.0,29.98,East,90,1.6,1.6,71,0.00,,,0.00,WUHU216HW,2013-03-17 08:20:00,
2013-03-17 04:25:00,15.5,7.8,29.98,ESE,113,2.0,2.5,71,0.00,,,0.00,WUHU216HW,2013-03-17 08:25:00,
2013-03-17 04:30:00,15.5,7.8,29.98,ESE,113,2.5,2.5,71,0.00,,,0.00,WUHU216HW,2013-03-17 08:30:00,
2013-03-17 04:35:00,15.3,7.6,29.97,ESE,113,2.0,2.5,71,0.00,,,0.00,WUHU216HW,2013-03-17 08:35:00,
2013-03-17 04:40:00,15.3,7.6,29.97,SE,135,3.1,3.1,71,0.00,,,0.00,WUHU216HW,2013-03-17 08:40:00,
2013-03-17 04:45:00,15.3,7.8,29.97,ESE,113,2.5,3.1,72,0.00,,,0.00,WUHU216HW,2013-03-17 08:45:00,
2013-03-17 04:50:00,15.3,7.8,29.97,ESE,113,2.0,2.9,72,0.00,,,0.00,WUHU216HW,2013-03-17 08:50:00,
2013-03-17 04:55:00,15.3,8.2,29.97,ESE,113,1.6,2.9,73,0.00,,,0.00,WUHU216HW,2013-03-17 08:55:00,
2013-03-17 05:00:00,15.3,8.2,29.97,ESE,113,2.2,2.9,73,0.00,,,0.00,WUHU216HW,2013-03-17 09:00:00,
2013-03-17 05:05:00,15.1,8.0,29.98,ESE,113,4.0,4.0,73,0.00,,,0.00,WUHU216HW,2013-03-17 09:05:00,
2013-03-17 05:10:00,14.8,7.7,29.97,East,90,2.0,4.3,73,0.00,,,0.00,WUHU216HW,2013-03-17 09:10:00,
2013-03-17 05:15:00,14.6,7.5,29.97,East,90,1.3,4.3,73,0.00,,,0.00,WUHU216HW,2013-03-17 09:15:00,
2013-03-17 05:20:00,14.4,7.3,29.97,ESE,113,1.1,1.8,73,0.00,,,0.00,WUHU216HW,2013-03-17 09:20:00,
2013-03-17 05:25:00,14.4,7.7,29.98,ESE,113,1.6,1.6,74,0.00,,,0.00,WUHU216HW,2013-03-17 09:25:00,
2013-03-17 05:30:00,14.4,7.7,29.98,SE,135,1.3,1.6,74,0.00,,,0.00,WUHU216HW,2013-03-17 09:30:00,
2013-03-17 05:35:00,14.4,7.7,29.98,ESE,113,2.9,2.9,74,0.00,,,0.00,WUHU216HW,2013-03-17 09:35:00,
2013-03-17 05:40:00,14.6,8.1,29.98,ESE,113,3.4,3.4,75,0.00,,,0.00,WUHU216HW,2013-03-17 09:40:00,
2013-03-17 05:45:00,14.6,8.1,29.98,East,90,1.8,3.4,75,0.00,,,0.00,WUHU216HW,2013-03-17 09:45:00,
2013-03-17 05:50:00,14.8,8.3,29.98,East,90,1.6,3.4,75,0.00,,,0.00,WUHU216HW,2013-03-17 09:50:00,
2013-03-17 05:55:00,14.8,8.3,29.97,East,90,2.2,2.7,75,0.00,,,0.00,WUHU216HW,2013-03-17 09:55:00,
2013-03-17 06:00:00,14.8,8.3,29.97,ESE,113,2.5,4.0,75,0.00,,,0.00,WUHU216HW,2013-03-17 10:00:00,
2013-03-17 06:05:00,14.8,8.3,29.97,SE,135,0.9,4.0,75,0.00,,,0.00,WUHU216HW,2013-03-17 10:05:00,
2013-03-17 06:10:00,14.8,8.3,29.98,ESE,113,1.8,2.9,75,0.00,,,0.00,WUHU216HW,2013-03-17 10:10:00,
2013-03-17 06:15:00,14.8,8.3,29.98,ESE,113,1.8,1.8,75,0.00,,,0.00,WUHU216HW,2013-03-17 10:15:00,
2013-03-17 06:38:00,15.1,8.9,29.98,SW,225,0.0,0.0,76,0.00,,,0.00,WUHU216HW,2013-03-17 10:38:00,
2013-03-17 06:43:00,15.1,8.9,29.98,SE,135,2.2,2.2,76,0.00,,,0.00,WUHU216HW,2013-03-17 10:43:00,
2013-03-17 06:48:00,15.5,9.3,29.98,SE,135,2.2,2.7,76,0.00,,,0.00,WUHU216HW,2013-03-17 10:48:00,
2013-03-17 06:53:00,15.5,9.3,29.99,SE,135,1.8,3.1,76,0.00,,,0.00,WUHU216HW,2013-03-17 10:53:00,
2013-03-17 06:58:00,15.5,9.3,29.99,SE,135,2.5,3.1,76,0.00,,,0.00,WUHU216HW,2013-03-17 10:58:00,
2013-03-17 07:03:00,15.8,9.9,29.99,SE,135,1.3,1.3,77,0.00,,,0.00,WUHU216HW,2013-03-17 11:03:00,
2013-03-17 07:08:00,15.8,9.9,30.00,SW,225,0.0,1.8,77,0.00,,,0.00,WUHU216HW,2013-03-17 11:08:00,
2013-03-17 07:13:00,16.2,9.9,30.00,ESE,113,1.8,2.0,76,0.00,,,0.00,WUHU216HW,2013-03-17 11:13:00,
2013-03-17 07:18:00,16.4,10.1,30.00,West,270,0.4,2.0,76,0.00,,,0.00,WUHU216HW,2013-03-17 11:18:00,
2013-03-17 07:23:00,16.4,10.1,30.01,West,270,0.0,1.8,76,0.00,,,0.00,WUHU216HW,2013-03-17 11:23:00,
2013-03-17 07:28:00,16.6,10.5,30.01,ENE,68,2.7,3.1,77,0.00,,,0.00,WUHU216HW,2013-03-17 11:28:00,
2013-03-17 07:33:00,16.7,10.7,30.01,East,90,1.8,4.7,77,0.00,,,0.00,WUHU216HW,2013-03-17 11:33:00,
2013-03-17 07:38:00,16.9,10.9,30.01,ESE,113,0.2,4.7,77,0.00,,,0.00,WUHU216HW,2013-03-17 11:38:00,
2013-03-17 07:43:00,16.9,10.9,30.01,ESE,113,4.0,4.5,77,0.00,,,0.00,WUHU216HW,2013-03-17 11:43:00,
2013-03-17 07:48:00,16.9,10.9,30.01,ESE,113,4.9,4.9,77,0.00,,,0.00,WUHU216HW,2013-03-17 11:48:00,
2013-03-17 07:53:00,17.1,11.1,30.02,East,90,3.4,6.3,77,0.00,,,0.00,WUHU216HW,2013-03-17 11:53:00,
2013-03-17 07:58:00,17.3,11.3,30.02,East,90,4.7,6.3,77,0.00,,,0.00,WUHU216HW,2013-03-17 11:58:00,
2013-03-17 08:03:00,17.6,11.5,30.02,SE,135,4.0,5.4,77,0.00,,,0.00,WUHU216HW,2013-03-17 12:03:00,
2013-03-17 08:08:00,17.8,11.4,30.03,South,180,1.1,5.4,76,0.00,,,0.00,WUHU216HW,2013-03-17 12:08:00,
2013-03-17 08:13:00,18.4,12.0,30.04,East,90,2.0,4.9,76,0.00,,,0.00,WUHU216HW,2013-03-17 12:13:00,
2013-03-17 08:18:00,18.9,12.5,30.04,West,270,0.9,2.0,76,0.00,,,0.00,WUHU216HW,2013-03-17 12:18:00,
2013-03-17 08:23:00,19.3,12.8,30.04,WSW,248,1.8,2.2,76,0.00,,,0.00,WUHU216HW,2013-03-17 12:23:00,
2013-03-17 08:28:00,19.8,12.8,30.04,WSW,248,3.4,4.5,74,0.00,,,0.00,WUHU216HW,2013-03-17 12:28:00,
2013-03-17 08:33:00,19.6,11.6,30.04,SW,225,3.4,4.5,71,0.00,,,0.00,WUHU216HW,2013-03-17 12:33:00,
2013-03-17 08:38:00,19.4,10.8,30.04,WSW,248,5.4,5.4,69,0.00,,,0.00,WUHU216HW,2013-03-17 12:38:00,
2013-03-17 08:43:00,20.9,12.2,30.03,West,270,17.7,17.7,69,0.00,,,0.00,WUHU216HW,2013-03-17 12:43:00,
2013-03-17 08:48:00,22.5,12.4,30.04,West,270,17.9,18.8,65,0.00,,,0.00,WUHU216HW,2013-03-17 12:48:00,
2013-03-17 08:53:00,22.7,11.5,30.05,West,270,13.6,18.8,62,0.00,,,0.00,WUHU216HW,2013-03-17 12:53:00,
2013-03-17 08:58:00,22.7,11.5,30.05,West,270,14.3,17.0,62,0.00,,,0.00,WUHU216HW,2013-03-17 12:58:00,
2013-03-17 09:03:00,22.7,13.3,30.06,ESE,113,3.6,17.0,67,0.00,,,0.00,WUHU216HW,2013-03-17 13:03:00,
2013-03-17 09:08:00,23.0,14.0,30.06,West,270,2.5,13.2,68,0.00,,,0.00,WUHU216HW,2013-03-17 13:08:00,
2013-03-17 09:13:00,23.4,13.7,30.06,NW,315,2.5,6.3,66,0.00,,,0.00,WUHU216HW,2013-03-17 13:13:00,
2013-03-17 09:18:00,23.4,13.7,30.07,North,0,2.0,4.7,66,0.00,,,0.00,WUHU216HW,2013-03-17 13:18:00,
2013-03-17 09:23:00,23.6,13.9,30.07,NNE,23,1.8,4.7,66,0.00,,,0.00,WUHU216HW,2013-03-17 13:23:00,
2013-03-17 09:28:00,24.1,14.7,30.07,North,0,1.3,4.3,67,0.00,,,0.00,WUHU216HW,2013-03-17 13:28:00,
2013-03-17 09:33:00,24.8,15.4,30.08,ESE,113,1.6,4.0,67,0.00,,,0.00,WUHU216HW,2013-03-17 13:33:00,
2013-03-17 09:38:00,25.7,15.8,30.08,East,90,4.5,5.4,66,0.00,,,0.00,WUHU216HW,2013-03-17 13:38:00,
2013-03-17 09:43:00,26.5,16.6,30.08,North,0,1.8,5.4,66,0.00,,,0.00,WUHU216HW,2013-03-17 13:43:00,
2013-03-17 09:48:00,27.0,16.4,30.08,ENE,68,2.2,7.4,64,0.00,,,0.00,WUHU216HW,2013-03-17 13:48:00,
2013-03-17 09:53:00,27.7,17.1,30.08,NE,45,1.1,7.4,64,0.00,,,0.00,WUHU216HW,2013-03-17 13:53:00,
2013-03-17 09:58:00,28.3,16.9,30.08,ENE,68,5.6,5.6,62,0.00,,,0.00,WUHU216HW,2013-03-17 13:58:00,
2013-03-17 10:03:00,28.3,16.9,30.09,NE,45,2.0,5.6,62,0.00,,,0.00,WUHU216HW,2013-03-17 14:03:00,
2013-03-17 10:08:00,28.4,16.7,30.09,West,270,0.2,4.5,61,0.00,,,0.00,WUHU216HW,2013-03-17 14:08:00,
2013-03-17 10:13:00,28.8,16.8,30.09,NNE,23,1.6,4.5,60,0.00,,,0.00,WUHU216HW,2013-03-17 14:13:00,
2013-03-17 10:18:00,28.4,15.9,30.09,NNW,338,2.9,4.0,59,0.00,,,0.00,WUHU216HW,2013-03-17 14:18:00,
2013-03-17 10:23:00,28.3,15.4,30.09,NW,315,0.9,4.0,58,0.00,,,0.00,WUHU216HW,2013-03-17 14:23:00,
2013-03-17 10:28:00,28.3,15.4,30.09,NW,315,0.9,0.9,58,0.00,,,0.00,WUHU216HW,2013-03-17 14:28:00,
2013-03-17 10:49:00,26.8,13.2,30.11,North,0,1.1,1.1,56,0.00,,,0.00,WUHU216HW,2013-03-17 14:49:00,
2013-03-17 10:54:00,28.1,13.5,30.11,NW,315,2.2,4.0,54,0.00,,,0.00,WUHU216HW,2013-03-17 14:54:00,
2013-03-17 10:59:00,28.6,14.0,30.11,NW,315,2.0,6.0,54,0.00,,,0.00,WUHU216HW,2013-03-17 14:59:00,
2013-03-17 11:04:00,27.9,12.5,30.11,WNW,293,4.9,8.1,52,0.00,,,0.00,WUHU216HW,2013-03-17 15:04:00,
2013-03-17 11:09:00,27.9,13.0,30.11,NW,315,1.1,8.1,53,0.00,,,0.00,WUHU216HW,2013-03-17 15:09:00,
2013-03-17 11:14:00,28.1,12.7,30.12,NNW,338,4.9,6.0,52,0.00,,,0.00,WUHU216HW,2013-03-17 15:14:00,
2013-03-17 11:19:00,27.7,12.3,30.12,WNW,293,4.0,6.9,52,0.00,,,0.00,WUHU216HW,2013-03-17 15:19:00,
2013-03-17 11:24:00,27.5,11.8,30.12,NW,315,6.7,9.2,51,0.00,,,0.00,WUHU216HW,2013-03-17 15:24:00,
2013-03-17 11:29:00,27.7,12.0,30.12,NW,315,8.1,9.2,51,0.00,,,0.00,WUHU216HW,2013-03-17 15:29:00,
2013-03-17 11:34:00,27.5,11.3,30.13,NW,315,4.7,8.1,50,0.00,,,0.00,WUHU216HW,2013-03-17 15:34:00,
2013-03-17 11:39:00,27.5,11.3,30.12,NNW,338,4.3,7.2,50,0.00,,,0.00,WUHU216HW,2013-03-17 15:39:00,
2013-03-17 11:44:00,27.4,11.2,30.12,NW,315,5.4,8.9,50,0.00,,,0.00,WUHU216HW,2013-03-17 15:44:00,
2013-03-17 11:49:00,27.7,12.0,30.13,NW,315,5.4,8.9,51,0.00,,,0.00,WUHU216HW,2013-03-17 15:49:00,
2013-03-17 11:54:00,27.9,10.7,30.13,NNW,338,4.7,6.7,48,0.00,,,0.00,WUHU216HW,2013-03-17 15:54:00,
2013-03-17 11:59:00,27.7,10.5,30.13,West,270,4.0,6.3,48,0.00,,,0.00,WUHU216HW,2013-03-17 15:59:00,
2013-03-17 12:04:00,28.3,11.5,30.13,NW,315,2.0,4.5,49,0.00,,,0.00,WUHU216HW,2013-03-17 16:04:00,
2013-03-17 12:09:00,28.6,10.9,30.13,WSW,248,3.4,4.7,47,0.00,,,0.00,WUHU216HW,2013-03-17 16:09:00,
2013-03-17 12:14:00,29.2,11.9,30.13,SSW,203,2.9,4.7,48,0.00,,,0.00,WUHU216HW,2013-03-17 16:14:00,
2013-03-17 12:19:00,30.2,11.9,30.13,WSW,248,2.5,5.1,46,0.00,,,0.00,WUHU216HW,2013-03-17 16:19:00,
2013-03-17 12:24:00,30.1,11.2,30.13,NNW,338,8.9,8.9,45,0.00,,,0.00,WUHU216HW,2013-03-17 16:24:00,
2013-03-17 12:29:00,29.3,11.1,30.13,NNW,338,6.9,8.9,46,0.00,,,0.00,WUHU216HW,2013-03-17 16:29:00,
2013-03-17 12:34:00,29.2,11.3,30.13,West,270,10.7,10.7,47,0.00,,,0.00,WUHU216HW,2013-03-17 16:34:00,
2013-03-17 12:39:00,28.4,10.7,30.13,WNW,293,8.5,10.7,47,0.00,,,0.00,WUHU216HW,2013-03-17 16:39:00,
2013-03-17 12:44:00,28.1,10.9,30.14,NW,315,4.7,10.1,48,0.00,,,0.00,WUHU216HW,2013-03-17 16:44:00,
2013-03-17 12:49:00,28.6,10.4,30.14,WNW,293,8.5,10.7,46,0.00,,,0.00,WUHU216HW,2013-03-17 16:49:00,
2013-03-17 12:54:00,28.3,10.1,30.13,NNW,338,11.2,13.0,46,0.00,,,0.00,WUHU216HW,2013-03-17 16:54:00,
2013-03-17 12:59:00,28.3,10.5,30.14,NW,315,9.8,13.0,47,0.00,,,0.00,WUHU216HW,2013-03-17 16:59:00,
2013-03-17 13:04:00,28.8,11.1,30.14,WNW,293,5.1,12.1,47,0.00,,,0.00,WUHU216HW,2013-03-17 17:04:00,
2013-03-17 13:09:00,29.7,12.3,30.14,WNW,293,6.0,12.1,48,0.00,,,0.00,WUHU216HW,2013-03-17 17:09:00,
2013-03-17 13:14:00,30.4,13.1,30.14,NE,45,2.7,6.0,48,0.00,,,0.00,WUHU216HW,2013-03-17 17:14:00,
2013-03-17 13:19:00,31.3,14.3,30.15,North,0,1.8,7.2,49,0.00,,,0.00,WUHU216HW,2013-03-17 17:19:00,
2013-03-17 13:24:00,31.3,14.9,30.15,WSW,248,4.5,7.2,50,0.00,,,0.00,WUHU216HW,2013-03-17 17:24:00,
2013-03-17 13:29:00,31.1,14.1,30.15,North,0,4.0,4.9,49,0.00,,,0.00,WUHU216HW,2013-03-17 17:29:00,
2013-03-17 13:34:00,31.3,14.9,30.15,North,0,4.7,4.9,50,0.00,,,0.00,WUHU216HW,2013-03-17 17:34:00,
2013-03-17 13:39:00,31.7,15.1,30.15,WNW,293,5.8,5.8,50,0.00,,,0.00,WUHU216HW,2013-03-17 17:39:00,
2013-03-17 13:44:00,32.0,15.5,30.15,NE,45,2.0,5.8,50,0.00,,,0.00,WUHU216HW,2013-03-17 17:44:00,
2013-03-17 13:49:00,32.8,16.1,30.15,ENE,68,3.1,5.1,50,0.00,,,0.00,WUHU216HW,2013-03-17 17:49:00,
2013-03-17 13:54:00,32.8,16.1,30.15,NNE,23,2.5,5.1,50,0.00,,,0.00,WUHU216HW,2013-03-17 17:54:00,
2013-03-17 13:59:00,32.9,15.8,30.15,North,0,3.4,4.7,49,0.00,,,0.00,WUHU216HW,2013-03-17 17:59:00,
2013-03-17 14:04:00,32.9,16.3,30.15,NW,315,2.0,4.7,50,0.00,,,0.00,WUHU216HW,2013-03-17 18:04:00,
2013-03-17 14:09:00,32.9,14.8,30.16,North,0,2.7,5.1,47,0.00,,,0.00,WUHU216HW,2013-03-17 18:09:00,
2013-03-17 14:14:00,33.3,15.6,30.16,NNE,23,4.7,5.1,48,0.00,,,0.00,WUHU216HW,2013-03-17 18:14:00,
2013-03-17 14:19:00,33.7,15.9,30.16,NNW,338,3.4,7.6,48,0.00,,,0.00,WUHU216HW,2013-03-17 18:19:00,
2013-03-17 14:24:00,34.2,15.4,30.16,NNW,338,4.7,7.6,46,0.00,,,0.00,WUHU216HW,2013-03-17 18:24:00,
2013-03-17 14:29:00,34.4,16.1,30.16,NNW,338,4.7,6.3,47,0.00,,,0.00,WUHU216HW,2013-03-17 18:29:00,
2013-03-17 14:34:00,34.6,16.8,30.16,NE,45,6.5,8.5,48,0.00,,,0.00,WUHU216HW,2013-03-17 18:34:00,
2013-03-17 14:39:00,34.6,15.8,30.16,North,0,6.5,8.5,46,0.00,,,0.00,WUHU216HW,2013-03-17 18:39:00,
2013-03-17 14:44:00,34.4,16.1,30.16,NNW,338,4.0,6.9,47,0.00,,,0.00,WUHU216HW,2013-03-17 18:44:00,
2013-03-17 14:49:00,33.8,14.6,30.16,NNW,338,2.9,6.9,45,0.00,,,0.00,WUHU216HW,2013-03-17 18:49:00,
2013-03-17 14:54:00,33.8,15.1,30.15,WNW,293,2.9,6.3,46,0.00,,,0.00,WUHU216HW,2013-03-17 18:54:00,
2013-03-17 14:59:00,34.0,14.2,30.15,WNW,293,6.3,6.3,44,0.00,,,0.00,WUHU216HW,2013-03-17 18:59:00,
2013-03-17 15:04:00,32.4,12.8,30.15,NNW,338,2.2,8.1,44,0.00,,,0.00,WUHU216HW,2013-03-17 19:04:00,
2013-03-17 15:09:00,32.8,13.2,30.15,NW,315,0.9,8.1,44,0.00,,,0.00,WUHU216HW,2013-03-17 19:09:00,
2013-03-17 15:14:00,33.5,14.8,30.15,SE,135,2.5,5.1,46,0.00,,,0.00,WUHU216HW,2013-03-17 19:14:00,
2013-03-17 15:19:00,34.4,15.1,30.15,NNE,23,2.2,5.6,45,0.00,,,0.00,WUHU216HW,2013-03-17 19:19:00,
2013-03-17 15:24:00,34.9,14.6,30.16,North,0,2.0,5.6,43,0.00,,,0.00,WUHU216HW,2013-03-17 19:24:00,
2013-03-17 15:29:00,35.5,14.6,30.16,East,90,2.5,4.3,42,0.00,,,0.00,WUHU216HW,2013-03-17 19:29:00,
2013-03-17 15:34:00,35.5,15.6,30.16,ENE,68,4.7,6.0,44,0.00,,,0.00,WUHU216HW,2013-03-17 19:34:00,
2013-03-17 15:39:00,35.5,13.5,30.16,WSW,248,6.9,6.9,40,0.00,,,0.00,WUHU216HW,2013-03-17 19:39:00,
2013-03-17 15:44:00,33.5,11.1,30.16,WSW,248,8.3,11.0,39,0.00,,,0.00,WUHU216HW,2013-03-17 19:44:00,
2013-03-17 15:49:00,31.7,8.2,30.15,WNW,293,15.9,15.9,37,0.00,,,0.00,WUHU216HW,2013-03-17 19:49:00,
2013-03-17 15:54:00,30.6,6.0,30.15,West,270,16.6,19.7,35,0.00,,,0.00,WUHU216HW,2013-03-17 19:54:00,
2013-03-17 15:59:00,30.6,7.3,30.15,WSW,248,13.4,21.5,37,0.00,,,0.00,WUHU216HW,2013-03-17 19:59:00,
2013-03-17 16:04:00,30.8,7.4,30.15,West,270,17.0,21.5,37,0.00,,,0.00,WUHU216HW,2013-03-17 20:04:00,
2013-03-17 16:09:00,31.0,7.6,30.16,West,270,17.2,20.6,37,0.00,,,0.00,WUHU216HW,2013-03-17 20:09:00,
2013-03-17 16:14:00,31.5,7.5,30.16,West,270,15.7,18.8,36,0.00,,,0.00,WUHU216HW,2013-03-17 20:14:00,
2013-03-17 16:19:00,33.1,11.9,30.17,NE,45,1.8,16.8,41,0.00,,,0.00,WUHU216HW,2013-03-17 20:19:00,
2013-03-17 16:24:00,35.6,14.2,30.17,West,270,2.9,12.1,41,0.00,,,0.00,WUHU216HW,2013-03-17 20:24:00,
2013-03-17 16:29:00,35.8,10.6,30.17,NW,315,6.3,6.3,35,0.00,,,0.00,WUHU216HW,2013-03-17 20:29:00,
2013-03-17 16:34:00,35.6,11.7,30.17,NNE,23,5.8,6.3,37,0.00,,,0.00,WUHU216HW,2013-03-17 20:34:00,
2013-03-17 16:39:00,35.6,11.7,30.17,NNE,23,5.8,5.8,37,0.00,,,0.00,WUHU216HW,2013-03-17 20:39:00,
2013-03-17 17:00:00,37.6,9.0,30.17,WSW,248,11.0,11.0,30,0.00,,,0.00,WUHU216HW,2013-03-17 21:00:00,
2013-03-17 17:05:00,34.9,7.9,30.17,West,270,15.9,15.9,32,0.00,,,0.00,WUHU216HW,2013-03-17 21:05:00,
2013-03-17 17:10:00,32.8,7.3,30.17,West,270,16.1,19.9,34,0.00,,,0.00,WUHU216HW,2013-03-17 21:10:00,
2013-03-17 17:15:00,32.2,6.2,30.18,West,270,15.0,19.9,33,0.00,,,0.00,WUHU216HW,2013-03-17 21:15:00,
2013-03-17 17:20:00,32.0,6.0,30.18,WNW,293,13.4,16.8,33,0.00,,,0.00,WUHU216HW,2013-03-17 21:20:00,
2013-03-17 17:25:00,32.4,5.1,30.18,West,270,12.3,16.6,31,0.00,,,0.00,WUHU216HW,2013-03-17 21:25:00,
2013-03-17 17:30:00,32.8,6.7,30.18,WSW,248,13.2,16.6,33,0.00,,,0.00,WUHU216HW,2013-03-17 21:30:00,
2013-03-17 17:35:00,33.5,8.6,30.18,West,270,13.2,16.3,35,0.00,,,0.00,WUHU216HW,2013-03-17 21:35:00,
2013-03-17 17:40:00,33.7,7.5,30.18,SW,225,11.9,16.3,33,0.00,,,0.00,WUHU216HW,2013-03-17 21:40:00,
2013-03-17 17:45:00,32.6,6.5,30.18,WSW,248,11.6,14.3,33,0.00,,,0.00,WUHU216HW,2013-03-17 21:45:00,
2013-03-17 17:50:00,32.4,7.7,30.19,West,270,16.3,17.0,35,0.00,,,0.00,WUHU216HW,2013-03-17 21:50:00,
2013-03-17 17:55:00,31.3,5.4,30.19,WSW,248,15.9,17.0,33,0.00,,,0.00,WUHU216HW,2013-03-17 21:55:00,
2013-03-17 18:00:00,31.7,5.7,30.19,WSW,248,11.4,16.1,33,0.00,,,0.00,WUHU216HW,2013-03-17 22:00:00,
2013-03-17 18:05:00,31.9,5.9,30.19,West,270,14.5,15.7,33,0.00,,,0.00,WUHU216HW,2013-03-17 22:05:00,
2013-03-17 18:10:00,31.7,8.2,30.20,West,270,16.3,17.0,37,0.00,,,0.00,WUHU216HW,2013-03-17 22:10:00,
2013-03-17 18:15:00,31.9,6.5,30.20,WSW,248,15.7,17.0,34,0.00,,,0.00,WUHU216HW,2013-03-17 22:15:00,
2013-03-17 18:20:00,32.0,6.0,30.21,West,270,14.3,17.4,33,0.00,,,0.00,WUHU216HW,2013-03-17 22:20:00,
2013-03-17 18:25:00,31.7,5.7,30.21,West,270,13.4,17.4,33,0.00,,,0.00,WUHU216HW,2013-03-17 22:25:00,
2013-03-17 18:30:00,31.5,5.0,30.21,West,270,10.5,14.8,32,0.00,,,0.00,WUHU216HW,2013-03-17 22:30:00,
2013-03-17 18:35:00,31.9,7.1,30.21,WSW,248,13.2,14.8,35,0.00,,,0.00,WUHU216HW,2013-03-17 22:35:00,
2013-03-17 18:40:00,30.8,4.9,30.22,West,270,7.6,14.3,33,0.00,,,0.00,WUHU216HW,2013-03-17 22:40:00,
2013-03-17 18:45:00,30.4,7.1,30.22,WNW,293,12.3,14.3,37,0.00,,,0.00,WUHU216HW,2013-03-17 22:45:00,
2013-03-17 18:50:00,29.3,6.1,30.22,WNW,293,15.7,15.7,37,0.00,,,0.00,WUHU216HW,2013-03-17 22:50:00,
2013-03-17 18:55:00,28.6,4.2,30.23,WNW,293,13.9,15.7,35,0.00,,,0.00,WUHU216HW,2013-03-17 22:55:00,
2013-03-17 19:00:00,28.4,4.7,30.23,WNW,293,12.8,15.4,36,0.00,,,0.00,WUHU216HW,2013-03-17 23:00:00,
2013-03-17 19:05:00,28.3,5.1,30.24,WNW,293,11.0,12.8,37,0.00,,,0.00,WUHU216HW,2013-03-17 23:05:00,
2013-03-17 19:10:00,28.1,5.0,30.24,West,270,11.9,14.5,37,0.00,,,0.00,WUHU216HW,2013-03-17 23:10:00,
2013-03-17 19:15:00,28.1,5.6,30.25,NW,315,6.3,14.5,38,0.00,,,0.00,WUHU216HW,2013-03-17 23:15:00,
2013-03-17 19:20:00,27.7,5.3,30.25,WNW,293,9.6,11.6,38,0.00,,,0.00,WUHU216HW,2013-03-17 23:20:00,
2013-03-17 19:25:00,27.5,4.5,30.26,WNW,293,11.9,11.9,37,0.00,,,0.00,WUHU216HW,2013-03-17 23:25:00,
2013-03-17 19:30:00,27.4,5.0,30.26,West,270,9.2,11.9,38,0.00,,,0.00,WUHU216HW,2013-03-17 23:30:00,
2013-03-17 19:35:00,27.4,5.6,30.26,West,270,8.3,10.5,39,0.00,,,0.00,WUHU216HW,2013-03-17 23:35:00,
2013-03-17 19:40:00,27.2,5.4,30.26,NW,315,5.4,10.5,39,0.00,,,0.00,WUHU216HW,2013-03-17 23:40:00,
2013-03-17 19:45:00,27.0,6.0,30.26,NW,315,12.3,12.3,40,0.00,,,0.00,WUHU216HW,2013-03-17 23:45:00,
2013-03-17 19:50:00,26.6,5.6,30.27,NNW,338,8.9,12.3,40,0.00,,,0.00,WUHU216HW,2013-03-17 23:50:00,
2013-03-17 19:55:00,26.6,6.0,30.27,NW,315,12.3,14.5,41,0.00,,,0.00,WUHU216HW,2013-03-17 23:55:00,
2013-03-17 20:00:00,26.6,6.6,30.27,WNW,293,10.1,14.5,42,0.00,,,0.00,WUHU216HW,2013-03-18 00:00:00,
2013-03-17 20:05:00,26.5,6.8,30.27,WNW,293,14.3,15.0,43,0.00,,,0.00,WUHU216HW,2013-03-18 00:05:00,
2013-03-17 20:10:00,26.6,7.0,30.27,NW,315,11.6,15.0,43,0.00,,,0.00,WUHU216HW,2013-03-18 00:10:00,
2013-03-17 20:15:00,26.6,7.0,30.27,NW,315,11.6,11.6,43,0.00,,,0.00,WUHU216HW,2013-03-18 00:15:00,
2013-03-17 20:36:00,25.6,5.6,30.29,WNW,293,9.4,9.4,42,0.00,,,0.00,WUHU216HW,2013-03-18 00:36:00,
2013-03-17 20:41:00,25.6,6.0,30.30,NNW,338,2.5,9.4,43,0.00,,,0.00,WUHU216HW,2013-03-18 00:41:00,
2013-03-17 20:46:00,25.4,6.4,30.30,NW,315,6.9,9.4,44,0.00,,,0.00,WUHU216HW,2013-03-18 00:46:00,
2013-03-17 20:51:00,25.2,6.2,30.30,NNW,338,6.3,8.9,44,0.00,,,0.00,WUHU216HW,2013-03-18 00:51:00,
2013-03-17 20:56:00,25.2,6.2,30.30,West,270,9.2,9.2,44,0.00,,,0.00,WUHU216HW,2013-03-18 00:56:00,
2013-03-17 21:01:00,25.2,7.2,30.31,NW,315,2.2,9.2,46,0.00,,,0.00,WUHU216HW,2013-03-18 01:01:00,
2013-03-17 21:06:00,24.8,6.8,30.31,NW,315,7.4,7.8,46,0.00,,,0.00,WUHU216HW,2013-03-18 01:06:00,
2013-03-17 21:11:00,24.8,6.8,30.31,NW,315,6.3,7.8,46,0.00,,,0.00,WUHU216HW,2013-03-18 01:11:00,
2013-03-17 21:16:00,24.7,6.2,30.32,North,0,3.1,6.3,45,0.00,,,0.00,WUHU216HW,2013-03-18 01:16:00,
2013-03-17 21:21:00,24.3,5.4,30.32,NW,315,5.1,6.7,44,0.00,,,0.00,WUHU216HW,2013-03-18 01:21:00,
2013-03-17 21:26:00,24.5,6.0,30.32,WNW,293,7.4,9.4,45,0.00,,,0.00,WUHU216HW,2013-03-18 01:26:00,
2013-03-17 21:31:00,24.3,5.4,30.33,NW,315,5.4,9.4,44,0.00,,,0.00,WUHU216HW,2013-03-18 01:31:00,
2013-03-17 21:36:00,24.1,5.2,30.32,NW,315,2.5,5.4,44,0.00,,,0.00,WUHU216HW,2013-03-18 01:36:00,
2013-03-17 21:41:00,24.1,5.8,30.33,West,270,9.2,9.2,45,0.00,,,0.00,WUHU216HW,2013-03-18 01:41:00,
2013-03-17 21:46:00,24.1,6.2,30.33,WNW,293,8.7,11.2,46,0.00,,,0.00,WUHU216HW,2013-03-18 01:46:00,
2013-03-17 21:51:00,24.3,6.8,30.32,NW,315,7.2,11.2,47,0.00,,,0.00,WUHU216HW,2013-03-18 01:51:00,
2013-03-17 21:55:00,24.1,6.8,30.33,WNW,293,6.5,11.0,47,0.00,,,0.00,WUHU216HW,2013-03-18 01:55:00,
2013-03-17 22:01:00,24.1,7.2,30.33,NW,315,4.7,8.7,48,0.00,,,0.00,WUHU216HW,2013-03-18 02:01:00,
2013-03-17 22:05:00,24.1,6.8,30.34,WNW,293,9.2,9.2,47,0.00,,,0.00,WUHU216HW,2013-03-18 02:05:00,
2013-03-17 22:11:00,23.9,6.6,30.34,WNW,293,4.9,9.2,47,0.00,,,0.00,WUHU216HW,2013-03-18 02:11:00,
2013-03-17 22:15:00,23.8,6.0,30.34,WNW,293,4.0,9.2,46,0.00,,,0.00,WUHU216HW,2013-03-18 02:15:00,
2013-03-17 22:20:00,23.6,5.8,30.34,NNE,23,1.1,4.7,46,0.00,,,0.00,WUHU216HW,2013-03-18 02:20:00,
2013-03-17 22:25:00,23.4,5.6,30.34,North,0,0.4,4.0,46,0.00,,,0.00,WUHU216HW,2013-03-18 02:25:00,
2013-03-17 22:30:00,23.0,5.2,30.35,NW,315,4.0,4.0,46,0.00,,,0.00,WUHU216HW,2013-03-18 02:30:00,
2013-03-17 22:36:00,23.0,5.2,30.35,NNW,338,0.9,4.7,46,0.00,,,0.00,WUHU216HW,2013-03-18 02:36:00,
2013-03-17 22:40:00,22.9,5.0,30.35,North,0,0.7,4.7,46,0.00,,,0.00,WUHU216HW,2013-03-18 02:40:00,
2013-03-17 22:46:00,22.7,5.0,30.35,North,0,1.1,2.0,46,0.00,,,0.00,WUHU216HW,2013-03-18 02:46:00,
2013-03-17 22:51:00,22.5,4.8,30.35,NE,45,1.8,2.9,46,0.00,,,0.00,WUHU216HW,2013-03-18 02:51:00,
2013-03-17 22:56:00,22.3,4.6,30.35,NE,45,1.1,3.1,46,0.00,,,0.00,WUHU216HW,2013-03-18 02:56:00,
2013-03-17 23:01:00,22.1,4.4,30.35,ENE,68,1.3,3.1,46,0.00,,,0.00,WUHU216HW,2013-03-18 03:01:00,
2013-03-17 23:06:00,22.0,4.7,30.35,ENE,68,1.1,2.5,47,0.00,,,0.00,WUHU216HW,2013-03-18 03:06:00,
2013-03-17 23:11:00,21.8,4.5,30.35,NE,45,3.4,3.4,47,0.00,,,0.00,WUHU216HW,2013-03-18 03:11:00,
2013-03-17 23:16:00,21.4,4.1,30.35,ENE,68,1.1,3.4,47,0.00,,,0.00,WUHU216HW,2013-03-18 03:16:00,
2013-03-17 23:21:00,21.2,4.0,30.35,NE,45,1.6,2.7,47,0.00,,,0.00,WUHU216HW,2013-03-18 03:21:00,
2013-03-17 23:25:00,21.2,4.0,30.35,NE,45,1.8,2.5,47,0.00,,,0.00,WUHU216HW,2013-03-18 03:25:00,
2013-03-17 23:30:00,21.1,4.3,30.34,NNE,23,0.7,2.5,48,0.00,,,0.00,WUHU216HW,2013-03-18 03:30:00,
2013-03-17 23:35:00,20.9,4.1,30.34,North,0,1.1,3.4,48,0.00,,,0.00,WUHU216HW,2013-03-18 03:35:00,
2013-03-17 23:40:00,20.9,3.7,30.34,NNE,23,0.2,3.4,47,0.00,,,0.00,WUHU216HW,2013-03-18 03:40:00,
2013-03-17 23:45:00,20.7,4.0,30.34,ESE,113,2.0,3.1,48,0.00,,,0.00,WUHU216HW,2013-03-18 03:45:00,
2013-03-17 23:50:00,20.7,4.0,30.36,ENE,68,1.8,3.1,48,0.00,,,0.00,WUHU216HW,2013-03-18 03:50:00,
2013-03-17 23:55:00,20.5,3.8,30.35,NE,45,1.1,2.0,48,0.00,,,0.00,WUHU216HW,2013-03-18 03:55:00,